DW0455 Weather Reports


time (UTC)temp
F
wind
direction
speed
knots
gust
knots
rain 1hr
in
rain 24hr
in
rain mn
in
humidity
%
barometer
mb
20260506184538 58 24 1.7 7.0 0.00 0.12 0.12 72 1015.0
20260506183032 60 333 2.6 12.2 0.00 0.12 0.12 73 1014.4
20260506181539 58 340 4.3 13.0 0.00 0.12 0.12 73 1014.0
20260506180030 57 348 1.7 9.6 0.00 0.12 0.12 78 1014.1
20260506174534 56 355 4.3 9.6 0.00 0.12 0.12 75 1014.5
20260506173028 55 360 5.2 13.0 0.00 0.12 0.12 78 1014.6
20260506171532 54 23 3.5 13.0 0.00 0.12 0.12 80 1014.5
20260506170029 54 325 2.6 9.6 0.00 0.12 0.12 83 1014.1
20260506164542 53 28 2.6 8.7 0.01 0.12 0.12 83 1014.6
20260506163023 53 342 0.9 6.1 0.01 0.12 0.12 84 1014.8
20260506161523 53 346 2.6 7.0 0.01 0.12 0.12 85 1014.7
20260506160020 53 28 3.5 14.8 0.02 0.12 0.12 85 1013.9
20260506154517 53 349 3.5 14.8 0.10 0.11 0.11 87 1013.4
20260506153014 53 5 0.9 3.5 0.11 0.11 0.11 87 1014.8
20260506151515 52 355 0.9 5.2 0.11 0.11 0.11 86 1014.5
20260506150010 52 335 1.7 7.8 0.10 0.10 0.10 83 1014.9
20260506144511 52 26 0.0 7.0 0.01 0.01 0.01 82 1016.2
20260506143004 52 32 0.9 7.0 0.00 0.00 0.00 81 1015.5
20260506141506 53 26 0.9 8.7 0.00 0.00 0.00 81 1013.9
20260506140100 53 355 2.6 8.7 0.00 0.00 0.00 79 1014.5
20260506134557 53 21 3.5 7.8 0.00 0.00 0.00 79 1014.5
20260506133107 52 28 1.7 9.6 0.00 0.00 0.00 79 1013.9
20260506131603 53 26 1.7 9.6 0.00 0.00 0.00 79 1013.5
20260506130049 53 24 2.6 9.6 0.00 0.00 0.00 78 1013.3
20260506124544 53 17 3.5 13.0 0.00 0.00 0.00 77 1012.8
20260506123041 54 280 2.6 11.3 0.00 0.00 0.00 76 1012.8
20260506121542 54 36 3.5 9.6 0.00 0.00 0.00 74 1012.7
20260506120051 55 5 2.6 10.4 0.00 0.00 0.00 73 1012.4
20260506114534 55 15 2.6 9.6 0.00 0.00 0.00 72 1012.4
20260506113029 55 9 2.6 7.8 0.00 0.00 0.00 71 1012.0
20260506111525 56 329 1.7 10.4 0.00 0.00 0.00 72 1011.8
20260506110025 56 20 1.7 5.2 0.00 0.00 0.00 72 1011.3
20260506104531 57 360 2.6 7.8 0.00 0.00 0.00 72 1011.1
20260506103035 57 355 1.7 9.6 0.00 0.00 0.00 72 1011.0
20260506101515 57 350 0.9 7.0 0.00 0.00 0.00 72 1010.6
20260506100012 57 343 0.9 5.2 0.00 0.00 0.00 73 1010.3
20260506094512 57 13 0.9 5.2 0.00 0.00 0.00 73 1010.1
20260506093018 57 355 0.9 5.2 0.00 0.00 0.00 72 1010.1
20260506091508 57 5 1.7 7.0 0.00 0.00 0.00 72 1009.9
20260506090006 58 27 1.7 10.4 0.00 0.00 0.00 73 1010.0
20260506084504 58 344 0.9 7.8 0.00 0.00 0.00 73 1009.9
20260506083002 58 360 0.9 4.3 0.00 0.00 0.00 74 1009.6
20260506081502 58 33 1.7 5.2 0.00 0.00 0.00 73 1009.6
20260506073058 58 16 1.7 5.2 0.00 0.00 0.00 75 1009.5
20260506071559 58 5 1.7 7.8 0.00 0.00 0.00 75 1009.1
20260506061547 60 21 2.6 4.3 0.00 0.00 0.00 75 1009.1
20260506044537 63 296 2.6 9.6 0.00 0.00 0.00 72 1009.0
20260506043030 63 336 4.3 11.3 0.00 0.00 0.00 71 1008.8
20260506041529 64 340 2.6 8.7 0.00 0.00 0.00 72 1008.9
20260506040032 65 31 3.5 8.7 0.00 0.00 0.00 71 1009.0
20260506034522 66 345 1.7 9.6 0.00 0.00 0.00 70 1008.7
20260506033018 66 15 1.7 7.8 0.00 0.00 0.00 69 1008.3
20260506031517 66 327 4.3 11.3 0.00 0.00 0.00 68 1008.0
20260506030014 67 5 2.6 9.6 0.00 0.00 0.00 68 1007.5
20260506024511 67 305 2.6 10.4 0.00 0.00 0.00 68 1007.4
20260506023009 68 299 3.5 8.7 0.00 0.00 0.00 67 1007.2
20260506021505 68 300 3.5 7.0 0.00 0.00 0.00 65 1006.7
20260506020004 69 329 0.9 12.2 0.00 0.00 0.00 65 1006.6
20260506014601 70 336 1.7 7.8 0.00 0.00 0.00 66 1006.3
20260506013109 70 21 2.6 7.8 0.00 0.00 0.00 64 1005.6
20260506011615 71 360 2.6 11.3 0.00 0.00 0.00 64 1005.4
20260506010059 72 326 3.5 9.6 0.00 0.00 0.00 63 1005.1
20260506004554 73 5 0.9 7.0 0.00 0.00 0.00 63 1004.7
20260506003055 73 31 1.7 5.2 0.00 0.00 0.00 62 1004.6
20260506001555 74 25 1.7 9.6 0.00 0.00 0.00 60 1004.4
20260506000053 74 26 1.7 7.0 0.00 0.00 0.00 61 1004.2
20260505234553 75 325 2.6 10.4 0.00 0.00 0.00 60 1004.0
20260505233050 76 9 2.6 7.8 0.00 0.00 0.00 58 1004.0
20260505231605 78 5 4.3 11.3 0.00 0.00 0.00 57 1003.9
20260505230049 79 16 2.6 8.7 0.00 0.00 0.00 56 1003.6
20260505224548 80 304 3.5 10.4 0.00 0.00 0.00 57 1003.6
20260505223047 82 86 1.7 13.0 0.00 0.00 0.00 56 1003.2
20260505221547 84 360 2.6 9.6 0.00 0.00 0.00 47 1003.1
20260505220051 86 5 1.7 7.0 0.00 0.00 0.00 47 1002.9
20260505214555 86 344 2.6 7.8 0.00 0.00 0.00 44 1002.8
20260505213044 88 28 2.6 9.6 0.00 0.00 0.00 44 1003.0
20260505211544 90 277 0.9 7.0 0.00 0.00 0.00 46 1002.9
20260505210045 90 253 1.7 7.8 0.00 0.00 0.00 42 1003.0
20260505204542 90 238 2.6 7.0 0.00 0.00 0.00 43 1003.1
20260505203058 90 281 1.7 7.0 0.00 0.00 0.00 49 1003.3
20260505201544 89 242 5.2 10.4 0.00 0.00 0.00 44 1003.3
20260505200046 89 234 4.3 9.6 0.00 0.00 0.00 45 1003.5
20260505194537 89 250 2.6 10.4 0.00 0.00 0.00 47 1003.7
20260505193036 88 221 5.2 9.6 0.00 0.00 0.00 46 1003.6
20260505191533 88 200 6.1 12.2 0.00 0.00 0.00 48 1003.7
20260505190034 87 240 7.0 10.4 0.00 0.00 0.00 48 1003.6